THA425 VTBS-WMKP

Flight info

Callsign THA425
Flight time 1h 18m
Altitude 37000
Route KASNI1E KASNI M757 VAS DCT LUNTU
Aircraft A320/M-SDE3FGHIRWY/LB1

Departure

Time 2026-04-18 09:54
Airport Suvarnabhumi Airport (VTBS)

Arrival

Time 2026-04-18 11:12
Airport Penang International Airport (WMKP)
Time Latitude Longitude Altitude Speed Heading
2026-04-18 09:12 13.68775 100.75404 13 ft 0 kts 284°
2026-04-18 09:44 13.68769 100.75428 13 ft 4 kts 283°
2026-04-18 09:44 13.68763 100.75454 15 ft 4 kts 285°
2026-04-18 09:45 13.68754 100.75481 14 ft 4 kts 298°
2026-04-18 09:45 13.68740 100.75498 16 ft 4 kts
2026-04-18 09:45 13.68723 100.75494 14 ft 1 kts 14°
2026-04-18 09:49 13.68723 100.75495 14 ft 1 kts 14°
2026-04-18 09:49 13.68738 100.75498 16 ft 4 kts 14°
2026-04-18 09:50 13.68779 100.75509 13 ft 7 kts 14°
2026-04-18 09:50 13.68833 100.75526 13 ft 9 kts 25°
2026-04-18 09:50 13.68853 100.75583 13 ft 10 kts 104°
2026-04-18 09:50 13.68834 100.75660 13 ft 12 kts 104°
2026-04-18 09:51 13.68866 100.75731 13 ft 13 kts 23°
2026-04-18 09:51 13.68958 100.75756 13 ft 14 kts 14°
2026-04-18 09:51 13.69059 100.75783 13 ft 13 kts 14°
2026-04-18 09:51 13.69111 100.75842 13 ft 12 kts 92°
2026-04-18 09:52 13.69098 100.75896 13 ft 8 kts 105°
2026-04-18 09:52 13.69083 100.75955 13 ft 9 kts 105°
2026-04-18 09:52 13.69062 100.76030 14 ft 13 kts 111°
2026-04-18 09:52 13.68999 100.76058 13 ft 11 kts 193°
2026-04-18 09:53 13.68819 100.76009 15 ft 53 kts 194°
2026-04-18 09:53 13.68258 100.75862 13 ft 110 kts 194°
2026-04-18 09:53 13.67385 100.75635 14 ft 150 kts 194°
2026-04-18 09:53 13.66267 100.75344 219 ft 173 kts 194°
2026-04-18 09:54 13.65059 100.75143 735 ft 182 kts 184°
2026-04-18 09:54 13.63738 100.75176 1118 ft 197 kts 175°
2026-04-18 09:54 13.62353 100.75272 1546 ft 201 kts 176°
2026-04-18 09:54 13.60902 100.75332 1892 ft 217 kts 178°
2026-04-18 09:55 13.59332 100.75499 2199 ft 238 kts 171°
2026-04-18 09:55 13.57658 100.75881 2658 ft 254 kts 164°
2026-04-18 09:55 13.55972 100.76391 3442 ft 257 kts 162°
2026-04-18 09:55 13.54240 100.76943 4174 ft 264 kts 163°
2026-04-18 09:56 13.52463 100.77502 4923 ft 270 kts 163°
2026-04-18 09:56 13.50643 100.78057 5600 ft 276 kts 163°
2026-04-18 09:56 13.48770 100.78612 5925 ft 282 kts 164°
2026-04-18 09:56 13.46875 100.79166 6254 ft 285 kts 164°
2026-04-18 09:57 13.44966 100.79721 7010 ft 286 kts 164°
2026-04-18 09:57 13.43034 100.80277 7754 ft 289 kts 164°
2026-04-18 09:57 13.41087 100.80834 8494 ft 292 kts 164°
2026-04-18 09:57 13.39117 100.81366 9223 ft 295 kts 169°
2026-04-18 09:58 13.37071 100.81541 9906 ft 298 kts 180°
2026-04-18 09:58 13.34967 100.81532 10350 ft 311 kts 180°
2026-04-18 09:58 13.32728 100.81523 10482 ft 333 kts 180°
2026-04-18 09:58 13.30409 100.81439 10849 ft 343 kts 187°
2026-04-18 09:59 13.28076 100.80877 11391 ft 347 kts 200°
2026-04-18 09:59 13.25902 100.79792 11984 ft 349 kts 213°
2026-04-18 09:59 13.23868 100.78422 12582 ft 352 kts 213°
2026-04-18 10:00 13.19742 100.75651 13745 ft 357 kts 214°
2026-04-18 10:00 13.17652 100.74253 14225 ft 360 kts 214°
2026-04-18 10:00 13.15541 100.72843 14703 ft 364 kts 213°
2026-04-18 10:00 13.13411 100.71415 15156 ft 367 kts 214°
2026-04-18 10:01 13.11292 100.69994 15643 ft 371 kts 214°
2026-04-18 10:01 13.09022 100.68729 16094 ft 375 kts 203°
2026-04-18 10:01 13.06512 100.67950 16555 ft 380 kts 191°
2026-04-18 10:01 13.03873 100.67707 17026 ft 383 kts 181°
2026-04-18 10:02 13.01190 100.67644 17457 ft 387 kts 181°
2026-04-18 10:02 12.98486 100.67578 17981 ft 389 kts 181°
2026-04-18 10:02 12.95771 100.67508 18406 ft 392 kts 181°
2026-04-18 10:02 12.93035 100.67437 18795 ft 395 kts 181°
2026-04-18 10:03 12.90283 100.67364 19176 ft 398 kts 182°
2026-04-18 10:03 12.87500 100.67292 19625 ft 400 kts 181°
2026-04-18 10:03 12.84751 100.67220 20009 ft 404 kts 182°
2026-04-18 10:03 12.81931 100.67147 20436 ft 406 kts 182°
2026-04-18 10:04 12.79097 100.67072 20809 ft 410 kts 182°
2026-04-18 10:04 12.76237 100.66994 21255 ft 411 kts 182°
2026-04-18 10:04 12.73370 100.66915 21649 ft 413 kts 183°
2026-04-18 10:04 12.70484 100.66837 22014 ft 416 kts 182°
2026-04-18 10:05 12.67588 100.66766 22470 ft 417 kts 182°
2026-04-18 10:05 12.64685 100.66696 22875 ft 419 kts 183°
2026-04-18 10:05 12.61796 100.66625 23208 ft 423 kts 182°
2026-04-18 10:05 12.58853 100.66550 23553 ft 425 kts 182°
2026-04-18 10:06 12.55886 100.66474 23861 ft 427 kts 183°
2026-04-18 10:06 12.52914 100.66396 24207 ft 428 kts 183°
2026-04-18 10:06 12.49933 100.66316 24543 ft 429 kts 183°
2026-04-18 10:06 12.46944 100.66236 24867 ft 431 kts 183°
2026-04-18 10:07 12.43930 100.66157 25171 ft 433 kts 183°
2026-04-18 10:07 12.40908 100.66078 25486 ft 435 kts 183°
2026-04-18 10:07 12.37920 100.65999 25782 ft 437 kts 183°
2026-04-18 10:07 12.34871 100.65920 26090 ft 439 kts 183°
2026-04-18 10:08 12.31808 100.65842 26374 ft 441 kts 183°
2026-04-18 10:08 12.28737 100.65763 26667 ft 443 kts 183°
2026-04-18 10:08 12.25658 100.65682 26946 ft 445 kts 183°
2026-04-18 10:08 12.22542 100.65599 27222 ft 447 kts 183°
2026-04-18 10:09 12.19425 100.65516 27493 ft 449 kts 184°
2026-04-18 10:09 12.16294 100.65434 27767 ft 451 kts 184°
2026-04-18 10:09 12.13194 100.65351 28033 ft 453 kts 184°
2026-04-18 10:09 12.10029 100.65266 28316 ft 455 kts 184°
2026-04-18 10:10 12.06856 100.65183 28597 ft 458 kts 184°
2026-04-18 10:10 12.03666 100.65100 28878 ft 460 kts 184°
2026-04-18 10:10 12.00457 100.65020 29166 ft 462 kts 184°
2026-04-18 10:10 11.97238 100.64941 29448 ft 464 kts 184°
2026-04-18 10:11 11.94005 100.64864 29734 ft 467 kts 184°
2026-04-18 10:11 11.90748 100.64782 29974 ft 469 kts 184°
2026-04-18 10:11 11.87531 100.64698 30203 ft 470 kts 184°
2026-04-18 10:11 11.84262 100.64612 30540 ft 469 kts 184°
2026-04-18 10:12 11.81000 100.64529 30896 ft 468 kts 184°
2026-04-18 10:12 11.77756 100.64448 31248 ft 467 kts 184°
2026-04-18 10:12 11.74505 100.64368 31623 ft 465 kts 184°
2026-04-18 10:12 11.71277 100.64289 31998 ft 464 kts 184°
2026-04-18 10:13 11.68047 100.64209 32384 ft 463 kts 184°
2026-04-18 10:13 11.64835 100.64129 32759 ft 461 kts 184°
2026-04-18 10:13 11.61631 100.64047 33151 ft 460 kts 184°
2026-04-18 10:13 11.58483 100.63965 33536 ft 458 kts 184°
2026-04-18 10:14 11.55297 100.63885 33906 ft 457 kts 184°
2026-04-18 10:14 11.52118 100.63806 34223 ft 456 kts 184°
2026-04-18 10:14 11.48951 100.63727 34539 ft 455 kts 184°
2026-04-18 10:14 11.45792 100.63648 34848 ft 454 kts 184°
2026-04-18 10:15 11.42641 100.63571 35153 ft 453 kts 184°
2026-04-18 10:15 11.39492 100.63493 35459 ft 452 kts 184°
2026-04-18 10:15 11.36397 100.63414 35747 ft 451 kts 184°
2026-04-18 10:15 11.33271 100.63336 36036 ft 450 kts 184°
2026-04-18 10:16 11.30146 100.63253 36323 ft 449 kts 184°
2026-04-18 10:16 11.27026 100.63172 36605 ft 448 kts 184°
2026-04-18 10:16 11.23912 100.63093 36799 ft 448 kts 184°
2026-04-18 10:17 11.17655 100.62935 36842 ft 451 kts 184°
2026-04-18 10:17 11.11420 100.62783 36847 ft 451 kts 184°
2026-04-18 10:18 11.05137 100.62622 36843 ft 452 kts 184°
2026-04-18 10:18 10.98842 100.62454 36849 ft 452 kts 184°
2026-04-18 10:19 10.92549 100.62298 36845 ft 452 kts 184°
2026-04-18 10:19 10.86252 100.62148 36851 ft 453 kts 184°
2026-04-18 10:20 10.79999 100.61987 36854 ft 453 kts 184°
2026-04-18 10:20 10.73685 100.61826 36855 ft 454 kts 184°
2026-04-18 10:21 10.67376 100.61673 36865 ft 454 kts 184°
2026-04-18 10:21 10.61073 100.61516 36867 ft 454 kts 184°
2026-04-18 10:22 10.54806 100.61358 36868 ft 453 kts 184°
2026-04-18 10:22 10.48489 100.61197 36868 ft 453 kts 184°
2026-04-18 10:23 10.42190 100.61042 36864 ft 453 kts 184°
2026-04-18 10:23 10.35890 100.60888 36863 ft 452 kts 184°
2026-04-18 10:24 10.29640 100.60735 36866 ft 452 kts 184°
2026-04-18 10:24 10.23351 100.60582 36867 ft 452 kts 184°
2026-04-18 10:25 10.17072 100.60429 36863 ft 451 kts 184°
2026-04-18 10:25 10.10796 100.60274 36861 ft 451 kts 184°
2026-04-18 10:26 10.04520 100.60124 36858 ft 451 kts 184°
2026-04-18 10:26 9.98295 100.59969 36855 ft 451 kts 184°
2026-04-18 10:27 9.92026 100.59810 36857 ft 451 kts 184°
2026-04-18 10:27 9.85758 100.59656 36858 ft 451 kts 184°
2026-04-18 10:28 9.79489 100.59501 36859 ft 451 kts 184°
2026-04-18 10:28 9.73259 100.59353 36860 ft 451 kts 184°
2026-04-18 10:29 9.66986 100.59204 36861 ft 451 kts 184°
2026-04-18 10:29 9.60700 100.59053 36861 ft 452 kts 184°
2026-04-18 10:30 9.54408 100.58904 36859 ft 452 kts 184°
2026-04-18 10:30 9.48155 100.58755 36862 ft 453 kts 184°
2026-04-18 10:31 9.41860 100.58604 36863 ft 453 kts 184°
2026-04-18 10:31 9.35561 100.58453 36863 ft 452 kts 184°
2026-04-18 10:32 9.29267 100.58302 36858 ft 452 kts 183°
2026-04-18 10:32 9.23026 100.58152 36873 ft 451 kts 183°
2026-04-18 10:33 9.16758 100.58008 36874 ft 450 kts 183°
2026-04-18 10:33 9.10506 100.57856 36872 ft 449 kts 183°
2026-04-18 10:34 9.04254 100.57707 36860 ft 449 kts 183°
2026-04-18 10:34 8.98014 100.57559 36863 ft 449 kts 183°
2026-04-18 10:35 8.91815 100.57411 36855 ft 448 kts 183°
2026-04-18 10:35 8.85582 100.57264 36853 ft 448 kts 183°
2026-04-18 10:36 8.79357 100.57114 36850 ft 447 kts 183°
2026-04-18 10:36 8.73139 100.56968 36848 ft 447 kts 183°
2026-04-18 10:37 8.66928 100.56826 36845 ft 447 kts 183°
2026-04-18 10:37 8.60754 100.56685 36842 ft 447 kts 183°
2026-04-18 10:38 8.54537 100.56537 36838 ft 447 kts 183°
2026-04-18 10:38 8.48313 100.56392 36832 ft 448 kts 183°
2026-04-18 10:39 8.42075 100.56249 36832 ft 448 kts 183°
2026-04-18 10:39 8.35876 100.56102 36835 ft 449 kts 183°
2026-04-18 10:40 8.29629 100.55956 36834 ft 449 kts 183°
2026-04-18 10:40 8.23382 100.55816 36835 ft 449 kts 183°
2026-04-18 10:41 8.17131 100.55668 36842 ft 449 kts 183°
2026-04-18 10:41 8.10899 100.55521 36848 ft 448 kts 183°
2026-04-18 10:42 8.04709 100.55373 36845 ft 448 kts 183°
2026-04-18 10:42 7.98482 100.55232 36845 ft 447 kts 183°
2026-04-18 10:43 7.92250 100.55093 36845 ft 447 kts 183°
2026-04-18 10:43 7.86033 100.54950 36842 ft 447 kts 183°
2026-04-18 10:44 7.79839 100.54798 36842 ft 448 kts 183°
2026-04-18 10:44 7.73615 100.54652 36838 ft 448 kts 183°
2026-04-18 10:45 7.67380 100.54509 36838 ft 448 kts 183°
2026-04-18 10:45 7.62207 100.54391 36837 ft 447 kts 182°
2026-04-18 10:46 7.55980 100.54248 36833 ft 447 kts 183°
2026-04-18 10:46 7.48747 100.54081 36835 ft 448 kts 183°
2026-04-18 10:47 7.42514 100.53959 36795 ft 448 kts 182°
2026-04-18 10:47 7.40452 100.53922 36631 ft 447 kts 182°
2026-04-18 10:47 7.37347 100.53866 36387 ft 447 kts 182°
2026-04-18 10:47 7.34237 100.53810 36142 ft 447 kts 182°
2026-04-18 10:48 7.31128 100.53755 35872 ft 447 kts 182°
2026-04-18 10:48 7.28016 100.53698 35339 ft 447 kts 182°
2026-04-18 10:48 7.23909 100.53626 34724 ft 444 kts 182°
2026-04-18 10:48 7.21823 100.53591 34411 ft 443 kts 182°
2026-04-18 10:49 7.18790 100.53541 33935 ft 442 kts 182°
2026-04-18 10:49 7.15712 100.53485 33416 ft 441 kts 182°
2026-04-18 10:49 7.12657 100.53426 32918 ft 438 kts 182°
2026-04-18 10:49 7.09622 100.53365 32431 ft 436 kts 182°
2026-04-18 10:50 7.06594 100.53304 31952 ft 433 kts 182°
2026-04-18 10:50 7.03596 100.53245 31469 ft 431 kts 182°
2026-04-18 10:50 7.00595 100.53188 30986 ft 428 kts 182°
2026-04-18 10:50 6.97621 100.53134 30517 ft 426 kts 182°
2026-04-18 10:51 6.94665 100.53083 30055 ft 424 kts 182°
2026-04-18 10:51 6.91760 100.53032 29571 ft 422 kts 182°
2026-04-18 10:51 6.88832 100.52979 29112 ft 418 kts 182°
2026-04-18 10:51 6.85938 100.52926 28684 ft 414 kts 183°
2026-04-18 10:52 6.83071 100.52870 28256 ft 411 kts 182°
2026-04-18 10:52 6.80229 100.52817 27848 ft 407 kts 182°
2026-04-18 10:52 6.77406 100.52767 27426 ft 404 kts 182°
2026-04-18 10:52 6.74599 100.52717 27009 ft 402 kts 182°
2026-04-18 10:53 6.71812 100.52666 26596 ft 400 kts 182°
2026-04-18 10:53 6.69037 100.52613 26189 ft 398 kts 182°
2026-04-18 10:53 6.66314 100.52560 25778 ft 396 kts 182°
2026-04-18 10:53 6.63563 100.52509 25356 ft 394 kts 182°
2026-04-18 10:54 6.60827 100.52458 24930 ft 393 kts 182°
2026-04-18 10:54 6.58094 100.52408 24496 ft 392 kts 182°
2026-04-18 10:54 6.55372 100.52362 24063 ft 392 kts 182°
2026-04-18 10:54 6.52648 100.52315 23613 ft 391 kts 182°
2026-04-18 10:55 6.49947 100.52130 23121 ft 389 kts 192°
2026-04-18 10:55 6.47348 100.51404 22651 ft 385 kts 203°
2026-04-18 10:55 6.44905 100.50402 22202 ft 384 kts 203°
2026-04-18 10:55 6.42436 100.49395 21752 ft 382 kts 203°
2026-04-18 10:56 6.39977 100.48398 21303 ft 380 kts 203°
2026-04-18 10:56 6.37541 100.47410 20859 ft 377 kts 203°
2026-04-18 10:56 6.35115 100.46425 20411 ft 375 kts 203°
2026-04-18 10:56 6.32705 100.45447 19945 ft 373 kts 203°
2026-04-18 10:57 6.30313 100.44477 19496 ft 371 kts 203°
2026-04-18 10:57 6.27928 100.43508 19048 ft 370 kts 202°
2026-04-18 10:57 6.25577 100.42554 18612 ft 368 kts 203°
2026-04-18 10:57 6.23207 100.41591 18167 ft 367 kts 203°
2026-04-18 10:58 6.20842 100.40633 17687 ft 366 kts 203°
2026-04-18 10:58 6.18457 100.39757 17235 ft 363 kts 195°
2026-04-18 10:58 6.15984 100.39314 16802 ft 360 kts 189°
2026-04-18 10:58 6.13510 100.38942 16366 ft 357 kts 189°
2026-04-18 10:59 6.11055 100.38567 15942 ft 355 kts 189°
2026-04-18 10:59 6.08623 100.38195 15511 ft 353 kts 189°
2026-04-18 10:59 6.06235 100.37833 15098 ft 351 kts 189°
2026-04-18 10:59 6.03832 100.37467 14677 ft 349 kts 189°
2026-04-18 11:00 6.01443 100.37103 14265 ft 347 kts 189°
2026-04-18 11:00 5.99063 100.36740 13851 ft 346 kts 189°
2026-04-18 11:00 5.96687 100.36377 13416 ft 345 kts 189°
2026-04-18 11:00 5.94327 100.36018 13036 ft 341 kts 189°
2026-04-18 11:01 5.91980 100.35662 12586 ft 340 kts 188°
2026-04-18 11:01 5.89648 100.35309 12171 ft 338 kts 188°
2026-04-18 11:01 5.87338 100.34958 11817 ft 334 kts 188°
2026-04-18 11:02 5.82833 100.34273 10999 ft 318 kts 188°
2026-04-18 11:02 5.80706 100.33948 10764 ft 302 kts 188°
2026-04-18 11:02 5.78669 100.33637 10425 ft 291 kts 188°
2026-04-18 11:02 5.76686 100.33337 10077 ft 285 kts 187°
2026-04-18 11:03 5.74746 100.33040 9733 ft 281 kts 188°
2026-04-18 11:03 5.72829 100.32747 9366 ft 276 kts 187°
2026-04-18 11:03 5.70964 100.32465 9026 ft 273 kts 187°
2026-04-18 11:03 5.69078 100.32340 8686 ft 271 kts 174°
2026-04-18 11:04 5.67217 100.32615 8344 ft 271 kts 167°
2026-04-18 11:04 5.65358 100.32967 8011 ft 272 kts 167°
2026-04-18 11:04 5.63492 100.33316 7673 ft 274 kts 167°
2026-04-18 11:04 5.61606 100.33668 7298 ft 276 kts 167°
2026-04-18 11:05 5.59724 100.34018 6961 ft 277 kts 167°
2026-04-18 11:05 5.57824 100.34372 6615 ft 279 kts 167°
2026-04-18 11:05 5.55949 100.34858 6261 ft 278 kts 154°
2026-04-18 11:05 5.54301 100.35833 5897 ft 275 kts 137°
2026-04-18 11:06 5.52980 100.37178 5535 ft 274 kts 129°
2026-04-18 11:06 5.51691 100.38596 5174 ft 275 kts 130°
2026-04-18 11:06 5.50395 100.40008 4801 ft 276 kts 130°
2026-04-18 11:06 5.49083 100.41434 4446 ft 278 kts 131°
2026-04-18 11:07 5.47553 100.42559 4074 ft 274 kts 160°
2026-04-18 11:07 5.45710 100.42660 3728 ft 266 kts 196°
2026-04-18 11:07 5.44141 100.41776 3432 ft 254 kts 221°
2026-04-18 11:07 5.42914 100.40557 3094 ft 243 kts 229°
2026-04-18 11:08 5.41842 100.39328 2766 ft 223 kts 229°
2026-04-18 11:08 5.40852 100.38214 2499 ft 206 kts 228°
2026-04-18 11:08 5.39924 100.37231 2279 ft 186 kts 226°
2026-04-18 11:08 5.39058 100.36363 2054 ft 164 kts 225°
2026-04-18 11:09 5.38277 100.35606 1839 ft 151 kts 225°
2026-04-18 11:09 5.37528 100.34893 1661 ft 146 kts 224°
2026-04-18 11:09 5.36796 100.34201 1483 ft 143 kts 224°
2026-04-18 11:09 5.36071 100.33522 1308 ft 142 kts 223°
2026-04-18 11:10 5.35340 100.32844 1131 ft 143 kts 223°
2026-04-18 11:10 5.34609 100.32168 967 ft 143 kts 223°
2026-04-18 11:10 5.33883 100.31500 798 ft 144 kts 223°
2026-04-18 11:10 5.33142 100.30820 657 ft 144 kts 221°
2026-04-18 11:11 5.32417 100.30152 429 ft 139 kts 224°
2026-04-18 11:11 5.31703 100.29495 324 ft 141 kts 223°
2026-04-18 11:11 5.30978 100.28841 154 ft 138 kts 223°
2026-04-18 11:11 5.30284 100.28202 33 ft 126 kts 222°
2026-04-18 11:12 5.29725 100.27694 24 ft 90 kts 222°
2026-04-18 11:12 5.29341 100.27345 25 ft 58 kts 222°
2026-04-18 11:12 5.29131 100.27156 25 ft 20 kts 221°
2026-04-18 11:12 5.29061 100.27071 27 ft 14 kts 269°
2026-04-18 11:13 5.29116 100.26989 26 ft 12 kts 311°
2026-04-18 11:13 5.29179 100.26917 23 ft 15 kts 311°
2026-04-18 11:13 5.29241 100.26848 24 ft 7 kts 311°
2026-04-18 11:13 5.29261 100.26811 23 ft 7 kts 275°
2026-04-18 11:14 5.29230 100.26769 23 ft 8 kts 220°
2026-04-18 11:14 5.29208 100.26729 23 ft 7 kts 282°
2026-04-18 11:14 5.29232 100.26693 23 ft 0 kts 311°
2026-04-18 11:14 5.29237 100.26687 23 ft 2 kts 310°
2026-04-18 11:15 5.29243 100.26679 23 ft 0 kts 310°